• Join FlightAware (Why Join?)
  • Login
  • US Flag 
02:42AM EDT


 

Airport Tracker/Info


-or-


 

Live Flight TrackerFlight Track Log ✈ RPA3343 ✈ 04-Sep-2013 ✈ KDCA - KMHT

Flight Track Log - Related Links

Times and Time Zones

All times are in EDT time to prevent confusion due to time zone crossing. See the RPA3343 flight status page for this flight to view local times or setup timezone preferences in your user account.

Time Position Orientation Groundspeed Altitude Reporting Facility
EDT Latitude Longitude Course Direction KTS MPH feet Rate Location/Type
03:07PM 38.8908 -76.9653 81° East 180 207 2,000  Level Washington Center
03:08PM 38.9067 -76.8747 77° East 216 249 4,700 3,000 Climbing Washington Center
03:09PM 39.0331 -76.5174 67° East  Level FlightAware Approximate
03:09PM 38.9158 -76.7708 83° East 257 296 8,000  Level Washington Center
03:10PM 39.0856 -76.3891 61° Northeast  Level FlightAware Approximate
03:10PM 38.9356 -76.6644 77° East 278 320 10,900  Level Washington Center
03:11PM 39.1219 -76.2562 57° Northeast  Level FlightAware Approximate
03:11PM 38.9822 -76.5689 58° Northeast 307 353 13,500  Level Washington Center
03:12PM 39.1590 -76.1265 83° East  Level FlightAware Approximate
03:12PM 39.0353 -76.4628 57° Northeast 324 373 14,900  Level Washington Center
03:13PM 39.1730 -75.9825 81° East  Level FlightAware Approximate
03:13PM 39.0922 -76.3431 58° Northeast 358 412 17,300  Level Washington Center
03:14PM 39.1494 -76.2178 59° Northeast 383 441 19,000 1,800 Climbing Washington Center
03:15PM 39.1708 -76.0708 79° East 400 460 21,000 1,860 Climbing Washington Center
03:16PM 39.1900 -75.9211 81° East 411 473 22,800 1,680 Climbing Washington Center
03:17PM 39.2611 -75.7953 54° Northeast 414 476 24,400 1,560 Climbing Washington Center
03:18PM 39.3489 -75.6800 45° Northeast 428 493 26,000 1,380 Climbing Washington Center
03:19PM 39.4364 -75.5647 45° Northeast 433 498 27,300 1,320 Climbing Washington Center
03:22PM 39.6761 -75.2536 45° Northeast 466 536 30,600 1,260 Climbing New York Center
03:23PM 39.7533 -75.1372 49° Northeast 466 536 31,800 1,200 Climbing New York Center
03:24PM 39.8414 -75.0100 48° Northeast 471 542 33,000 600 Climbing New York Center
03:25PM 39.9292 -74.8856 47° Northeast 471 542 33,000  Level New York Center
03:26PM 40.0228 -74.7692 44° Northeast 466 536 33,000  Level New York Center
03:27PM 40.1378 -74.7022 24° Northeast 452 520 33,000  Level New York Center
03:28PM 40.2600 -74.6575 16° North 445 512 33,000  Level New York Center
03:29PM 40.3844 -74.6156 14° North 445 512 33,000  Level New York Center
03:30PM 40.5067 -74.5733 15° North 445 512 33,000  Level New York Center
03:31PM 40.6286 -74.5336 14° North 445 512 33,000  Level New York Center
03:32PM 40.7531 -74.4911 15° North 450 518 33,000  Level New York Center
03:33PM 40.8772 -74.4511 14° North 455 524 33,000  Level New York Center
03:35PM 41.0936 -74.3817 14° North 454 522 33,000  Level Boston Center
03:36PM 41.2153 -74.3414 14° North 454 522 33,000  Level Boston Center
03:37PM 41.3494 -74.2900 16° North 454 522 33,000  Level Boston Center
03:38PM 41.4753 -74.2467 14° North 454 522 33,000 -360 Level Boston Center
03:39PM 41.5861 -74.2136 13° North 454 522 32,300 -840 Descending Boston Center
03:40PM 41.7119 -74.1725 14° North 454 522 31,400 -900 Descending Boston Center
03:41PM 41.8461 -74.1094 19° North 454 522 30,500 -1,140 Descending Boston Center
03:42PM 41.9314 -73.9778 49° Northeast 449 517 29,200 -1,260 Descending Boston Center
03:43PM 42.0083 -73.8314 55° Northeast 449 517 28,000 -1,140 Descending Boston Center
03:44PM 42.0703 -73.7153 54° Northeast 456 525 27,000 -1,200 Descending Boston Center
03:45PM 42.1511 -73.5575 55° Northeast 469 540 25,700 -1,440 Descending Boston Center
03:46PM 42.2233 -73.4186 55° Northeast 463 533 24,200 -1,620 Descending Boston Center
03:47PM 42.2994 -73.2736 55° Northeast 447 514 22,500 -1,440 Descending Boston Center
03:48PM 42.3628 -73.1453 56° Northeast 439 505 21,300 -1,320 Descending Boston Center
03:49PM 42.4281 -73.0167 55° Northeast 433 498 19,900 -1,200 Descending Boston Center
03:50PM 42.4953 -72.8878 55° Northeast 416 479 19,000 -660 Descending Boston Center
03:51PM 42.5647 -72.7475 56° Northeast 416 479 18,600 -1,440 Descending Boston Center
03:52PM 42.6233 -72.6375 54° Northeast 411 473 16,100 -2,460 Descending Boston Center
03:53PM 42.6817 -72.5164 57° Northeast 404 465 13,800 -2,100 Descending Boston Center
03:54PM 42.7400 -72.4033 55° Northeast 382 440 12,000 -1,380 Descending Boston Center
03:55PM 42.7900 -72.2986 57° Northeast 351 404 11,100 -840 Descending Boston Center
03:56PM 42.8022 -72.1742 82° East 318 366 10,400 -900 Descending Boston Center
03:57PM 42.8125 -72.0467 84° East 311 358 9,300 -1,020 Descending Boston Center
03:58PM 42.8161 -71.9419 87° East 311 358 8,400 -1,140 Descending Boston Center
03:59PM 42.8050 -71.8175 97° East 308 354 7,100 -1,260 Descending Boston Center
04:00PM 42.7942 -71.7186 98° East 302 348 5,900 -1,260 Descending Boston Center
04:01PM 42.7850 -71.6028 96° East 291 335 4,700 -1,140 Descending Boston Center
04:02PM 42.7989 -71.5206 77° East 257 296 3,700 -1,020 Descending Boston Center
04:03PM 42.8211 -71.4294 72° East 228 262 2,700 -960 Descending Boston Center
04:04PM 42.8561 -71.3892 40° Northeast 167 192 1,800 -960 Descending Boston Center
04:05PM 42.8981 -71.4142 336° Northwest 137 158 800 -780 Descending Boston Center
04:06PM 42.9294 -71.4278 342° North 137 158 300 -540 Descending Boston Center